Location: Mainz-Finthen
(49.9906°N, 8.1713°E)
Time: 04:25:03
(UTC+00:00)

BEESAT - Pass Details

Date: 08 December 2021
Orbit: 699 x 708 km, 98.6° (Epoch: 18 January)

Event Time Altitude Azimuth Distance (km) Brightness Sun altitude
Rises 04:28:18 0° 110° (ESE) 3,095 ? -25.3°
Reaches altitude 10° 04:31:28 10° 87° (E) 2,183 ? -24.7°
Maximum altitude 04:34:04 15° 54° (NE) 1,878 ? -24.3°
Drops below altitude 10° 04:36:41 10° 21° (NNE) 2,193 ? -23.9°
Sets 04:39:52 0° 358° (N) 3,118 ? -23.4°
